Location: Newark
(42.8481°N, 0.4872°E)
Time: 07:30:46
(UTC+00:00)

Vanguard 2 - Pass Details

Date: 03 November 2020
Orbit: 554 x 2937 km, 32.9° (Epoch: 28 November)

Event Time Altitude Azimuth Distance (km) Brightness Sun altitude
Rises 21:52:03 0° 271° (W) 5,560 12.3 -53.9°
Reaches altitude 10° 21:55:27 10° 266° (W) 4,830 11.8 -54.4°
Enters shadow 22:02:25 34° 246° (WSW) 3,688 10.9 -55.3°
Maximum altitude 22:09:19 49° 198° (SSW) 3,373 - -56.2°
Drops below altitude 10° 22:25:57 10° 131° (SE) 5,696 - -58.2°
Sets 22:30:24 0° 127° (SE) 6,590 - -58.6°
